User: anonymous   Login
Location: El Bakhil
(32.7726°N, 5.5387°W)
Time: 12:22:30
(UTC+00:00)
Language:

KKS-1 - Orbit

View from above orbital plane
View from above orbital plane
View from above satellite
View from above satellite

Ground track
Ground track

The orbit data is extracted from the following two-line orbital elements,

1 33499U 09002H   22337.84111312  .00000746  00000-0  11524-3 0  9990
2 33499  98.1939 222.4841 0009871 127.5668 232.6438 14.76301839745233
Epoch (UTC): 03 December 2022 20:11:12
Eccentricity: 0.0009871
inclination: 98.1939°
perigee height: 634 km
apogee height: 648 km
right ascension of ascending node: 222.4841°
argument of perigee: 127.5668°
revolutions per day: 14.76301839
mean anomaly at epoch: 232.6438°
orbit number at epoch: 74523

The dashed part of the orbit path shows where the satellite is in the earth's shadow,  

DLR